Weather History for Mineral Wells, TX

Change the Weather History Date:

Saturday, December 8, 2012

  Actual Average Record
Temperature  
Mean Temperature 60 °F -  
Max Temperature 73 °F 57 °F 78 °F (2003)
Min Temperature 48 °F 35 °F 12 °F (2005)
Degree Days  
Heating Degree Days 4    
Growing Degree Days 10 (Base 50)    
Moisture  
Dew Point 49 °F    
Average Humidity 72    
Maximum Humidity 93    
Minimum Humidity 49    
Precipitation  
Precipitation 0.00 in - - ()
Sea Level Pressure  
Sea Level Pressure 29.82 in    
Wind  
Wind Speed 4 mph (SE)    
Max Wind Speed 10 mph    
Max Gust Speed -    
Visibility 10 miles    
Events      
Averages and records for this station are not official NWS values.
T = Trace of Precipitation, MM = Missing Value Source: NWS Daily Summary

Daily Weather History Graph

Daily Weather History Graph

Search for Another Location

Airport:

Trip Planner

Search our weather history database for the weather conditions in past years. The results will help you decide how hot, cold, wet, or windy it might be!

Date:

Astronomy

Dec. 08, 2012 Rise Set
Actual Time 7:22 AM CST 5:26 PM CST
Civil Twilight 6:55 AM CST 5:53 PM CST
Nautical Twilight 6:24 AM CST 6:23 PM CST
Astronomical Twilight 5:54 AM CST 6:53 PM CST
Moon 2:02 AM CST (12/8) 1:44 PM CST (12/8)
Length of Visible Light 10h 57m
Length of Day
10h 03m
Waning Crescent, 28% of the Moon is Illuminated
Dec 8
Waning Crescent
Dec 13
New
Dec 19
First Quarter
Dec 28
Full
Jan 4
Last Quarter

Hourly Weather History & Observations

Time (CST) Temp. Dew Point Humidity Pressure Visibility Wind Dir Wind Speed Gust Speed Precip Events Conditions
12:53 AM 50.0 °F 43.0 °F 77% 29.86 in 10.0 mi North 4.6 mph - N/A   Partly Cloudy
1:53 AM 48.0 °F 42.1 °F 80% 29.85 in 10.0 mi Calm Calm - N/A   Partly Cloudy
2:53 AM 48.9 °F 43.0 °F 80% 29.86 in 10.0 mi Calm Calm - N/A   Clear
3:53 AM 48.9 °F 44.1 °F 83% 29.87 in 10.0 mi Calm Calm - N/A   Mostly Cloudy
4:53 AM 50.0 °F 44.6 °F 82% 29.89 in 9.0 mi Calm Calm - N/A   Overcast
5:53 AM 51.1 °F 44.1 °F 77% 29.88 in 10.0 mi North 3.5 mph - N/A   Overcast
6:53 AM 51.1 °F 44.1 °F 77% 29.88 in 10.0 mi NNE 5.8 mph - N/A   Overcast
7:53 AM 52.0 °F 45.0 °F 77% 29.91 in 10.0 mi North 3.5 mph - N/A   Overcast
8:53 AM 52.0 °F 45.0 °F 77% 29.91 in 10.0 mi ENE 3.5 mph - N/A   Overcast
9:53 AM 53.1 °F 45.0 °F 74% 29.92 in 10.0 mi East 4.6 mph - N/A   Overcast
10:53 AM 55.9 °F 45.0 °F 67% 29.90 in 10.0 mi SE 8.1 mph - N/A   Overcast
11:53 AM 60.1 °F 46.0 °F 60% 29.86 in 10.0 mi SSE 6.9 mph - N/A   Overcast
12:53 PM 64.0 °F 48.0 °F 56% 29.83 in 10.0 mi SSW 6.9 mph - N/A   Scattered Clouds
1:53 PM 66.9 °F 48.9 °F 52% 29.79 in 10.0 mi WSW 4.6 mph - N/A   Clear
2:53 PM 71.1 °F 51.1 °F 49% 29.76 in 10.0 mi South 5.8 mph - N/A   Clear
3:53 PM 73.0 °F 54.0 °F 51% 29.74 in 10.0 mi South 10.4 mph - N/A   Partly Cloudy
4:53 PM 71.1 °F 55.0 °F 57% 29.74 in 10.0 mi SSW 10.4 mph - N/A   Clear
5:53 PM 66.9 °F 54.0 °F 63% 29.75 in 10.0 mi South 4.6 mph - N/A   Clear
6:53 PM 64.0 °F 54.0 °F 70% 29.75 in 10.0 mi SSE 5.8 mph - N/A   Clear
7:53 PM 61.0 °F 54.0 °F 78% 29.76 in 10.0 mi SE 6.9 mph - N/A   Clear
8:53 PM 60.1 °F 54.0 °F 80% 29.76 in 10.0 mi SE 8.1 mph - N/A   Clear
9:53 PM 57.9 °F 54.0 °F 87% 29.76 in 10.0 mi SSE 5.8 mph - N/A   Clear
10:53 PM 57.0 °F 54.0 °F 89% 29.76 in 8.0 mi Calm Calm - N/A   Clear
11:53 PM 55.9 °F 54.0 °F 93% 29.76 in 7.0 mi SE 5.8 mph - N/A   Clear